Location: Unspecified
(0.0000°N, 0.0000°E)
Time: 16:23:22
(UTC+00:00)

AAUSAT3 - Pass Details

Date: 04 August 2024
Orbit: 756 x 773 km, 98.4° (Epoch: 17 September)

Event Time Altitude Azimuth Distance (km) Brightness Sun altitude
Rises 19:11:09 0° 338° (NNW) 3,203 ? -15.5°
Reaches altitude 10° 19:14:33 10° 313° (NW) 2,286 ? -16.4°
Maximum altitude 19:17:06 14° 283° (WNW) 2,021 ? -17.0°
Drops below altitude 10° 19:19:40 10° 252° (WSW) 2,296 ? -17.6°
Sets 19:23:07 0° 227° (SW) 3,230 ? -18.4°
